Miscellaneous Local Product
Issued by NWS North Platte, NE

Home | Current Version | Previous Version | Graphics & Text | Print | Product List | Glossary On
Versions: 1 2 3 4 5 6 7 8 9 10 11 12 13 14 15 16 17 18 19 20 21 22 23 24 25 26 27 28 29 30 31 32 33 34 35 36 37 38 39 40 41 42 43 44 45 46 47 48 49 50
000
AXUS43 KLBF 271510
MISLBF


WESTERN AND NORTH CENTRAL NEBRASKA HOURLY WEATHER ROUNDUP
NATIONAL WEATHER SERVICE NORTH PLATTE NE
900 AM CST THU NOV 27 2014

***STATIONS NOT REPORTING VARIABLES SUCH AS SKY/WEATHER OR
PRESSURE ARE PROVIDED BY THE NEBRASKA DEPARTMENT OF
ROADS...RAWS...AND APRS NETWORKS...AND ARE NOT UNDER
NATIONAL WEATHER SERVICE QUALITY CONTROL***

...OBSERVATIONS IN AND NEAR THE EASTERN PANHANDLE OF NEBRASKA...

CITY           SKY/WX    TMP DP  RH WIND       PRES   REMARKS
PINE RIDGE     PTCLDY    28  22  78 S8        30.11F WCI  20
CHADRON        CLOUDY   N/A N/A N/A CALM      30.11F
ALLIANCE       PTCLDY    21  19  92 S6        30.13S WCI  13
SIDNEY         MOCLDY    32  28  85 SW13      30.16S WCI  22
WHITECLAY        N/A     26  20  79 S9          N/A  WCI  17
CRESCENT LAKE    N/A     21  18  89 SE5         N/A  WCI  15
LISCO            N/A     21  15  78 CALM        N/A
BIG SPRINGS      N/A     20  19  94 CALM        N/A
$$

...OBSERVATIONS IN NORTH CENTRAL NEBRASKA...

CITY           SKY/WX    TMP DP  RH WIND       PRES   REMARKS
VALENTINE      CLOUDY    24  17  74 SE14      30.23F WCI  12
THEDFORD       MOSUNNY   25  19  79 S15       30.24S WCI  13
AINSWORTH      CLOUDY    20  15  79 SE16      30.25F WCI   6
O`NEILL        CLOUDY    19  10  70 SE9       30.37F WCI   7
ORD            MOSUNNY   19  11  70 SE9       30.37F WCI   8
BROKEN BOW     MOSUNNY   21  15  78 SE14G24   30.31F WCI   8
BROWNLEE         N/A     23  19  83 S16         N/A  WCI  10
SPRINGVIEW       N/A     20  13  74 SE7         N/A  WCI  11
BREWSTER         N/A     26  19  74 S15         N/A  WCI  14
SARGENT          N/A     20  16  83 SE6         N/A  WCI  12
COMSTOCK         N/A     26  21  82 S13         N/A  WCI  15
CHAMBERS         N/A     20   8  59 S6          N/A  WCI  12
$$

...OBSERVATIONS IN SOUTHWEST NEBRASKA AND FAR NORTHEAST COLORADO...

CITY           SKY/WX    TMP DP  RH WIND       PRES   REMARKS
WRAY           FAIR      27  24  89 W7        30.21S WCI  19
HOLYOKE        FAIR      32  28  86 W6        30.19S WCI  26
IMPERIAL       MOSUNNY   23  19  85 CALM      30.23R
OGALLALA       SUNNY    N/A N/A N/A CALM      30.21F
NORTH PLATTE   MOSUNNY   21  17  84 SE8       30.26F WCI  11
MCCOOK         SUNNY     24  18  77 SE6       30.29F WCI  17
LEXINGTON      MOSUNNY   24  19  80 SE13      30.34S WCI  12
PAXTON           N/A     22  20  92 S6          N/A  WCI  15
BRADY            N/A     21  16  81 CALM        N/A
GOTHENBURG       N/A     22  17  80 SE8         N/A  WCI  13
CALLAWAY         N/A     23  20  87 S18         N/A  WCI   9
$$

...NORTH PLATTE AREA...

CITY           SKY/WX    TMP DP  RH WIND       PRES   REMARKS
AIRPORT        MOSUNNY   21  17  84 SE8       30.26F WCI  11
DOWNTOWN         N/A     22  17  80 S5G12       N/A  WCI  16
$$

...SOME WEATHER OBSERVATIONS FROM AROUND THE REGION...

CITY           SKY/WX    TMP DP  RH WIND       PRES   REMARKS
DENVER         CLOUDY    46  18  32 SW13      30.21R
LARAMIE        CLOUDY    39  18  42 SW21G29   30.23R WCI  29
CHEYENNE       MOCLDY    46  18  32 W22G32    30.17R
SCOTTSBLUFF    MOCLDY    19  17  92 CALM      30.15S FOG
RAPID CITY     CLOUDY    19  17  92 SE12      30.10F WCI   7
PIERRE         CLOUDY    13   8  81 SE17      30.31F WCI  -4
WINNER         CLOUDY    19   9  65 SE16      30.30S WCI   4
SIOUX FALLS    MOSUNNY    0  -7  72 CALM      30.48R
OMAHA          PTSUNNY   16   6  65 N5        30.55R WCI   9
GRAND ISLAND   SUNNY     20  12  71 SE9       30.45F WCI   9
KANSAS CITY    CLOUDY    25  19  78 N5        30.52R WCI  19
WICHITA        MOSUNNY   29  19  66 CALM      30.51R
HAYS           SUNNY     27  12  54 SE7       30.43S WCI  19
LIBERAL        MOSUNNY   30  18  59 S14       30.42S WCI  20
GOODLAND       SUNNY     28  20  71 SW14      30.24F WCI  17
$$



USA.gov is the U.S. government's official web portal to all federal, state and local government web resources and services.